Starlink 32265

operational
NORAD ID: 60415 Int'l Des: 2024-141 Owner: SPXS Country: US Constellation: starlink
LEOCIRCULAR

Starlink 32265について

説明を読み込み中...

リアルタイム位置

3D地球を読み込み中...

次回通過

高度履歴

Altitude vs Time

uPlot chart will show altitude changes over time

軌道要素

1 60415U 24141T 25304.91838198 -.00001095 00000-0 -24872-4 0 9993
2 60415 53.1579 120.8242 0001168 87.4085 272.7050 15.30179719 69860
Epoch: Oct 31, 2025 • Age: 43 hours

現在のステータス

高度 484.7 km
速度 7.62 km/s
衛星直下点 -29.54°S, 15.5°E
打ち上げ日 Aug 10, 2024
運用期間 1.2 years
タイプ internet

技術仕様

分類 Payload
質量 730.00 kg
乾燥質量 700.00 kg
総質量 730.00 kg
長さ 0.30 m
直径 4.10 m
スパン 29.00 m
形状 Box + pan
製造者 SPXS
バスタイプ Starlink V2M
フェーズステータス In Orbit
所有者/国 SPXS/US

大規模コンステレーション

Loading constellations...